TimeCDT,TemperatureF,Dew PointF,Humidity,Sea Level PressureIn,VisibilityMPH,Wind Direction,Wind SpeedMPH,Gust SpeedMPH,PrecipitationIn,Events,Conditions,WindDirDegrees,DateUTC
12:54 AM,41.0,37.0,86,30.23,10.0,Calm,Calm,-,N/A,,Clear,0,2012-10-08 05:54:00
1:54 AM,41.0,37.0,86,30.22,10.0,Calm,Calm,-,N/A,,Clear,0,2012-10-08 06:54:00
2:54 AM,42.1,37.0,82,30.22,10.0,Calm,Calm,-,N/A,,Clear,0,2012-10-08 07:54:00
3:54 AM,41.0,37.0,86,30.22,10.0,Calm,Calm,-,N/A,,Clear,0,2012-10-08 08:54:00
4:54 AM,39.0,36.0,89,30.24,10.0,Calm,Calm,-,N/A,,Clear,0,2012-10-08 09:54:00
5:54 AM,39.0,37.0,93,30.24,10.0,Calm,Calm,-,N/A,,Clear,0,2012-10-08 10:54:00
6:54 AM,39.0,37.0,93,30.25,10.0,Calm,Calm,-,N/A,,Clear,0,2012-10-08 11:54:00
7:54 AM,41.0,37.9,89,30.26,9.0,Calm,Calm,-,N/A,,Clear,0,2012-10-08 12:54:00
8:54 AM,45.0,39.0,80,30.27,9.0,Calm,Calm,-,N/A,,Clear,0,2012-10-08 13:54:00
9:54 AM,51.1,37.0,59,30.27,10.0,Calm,Calm,-,N/A,,Clear,0,2012-10-08 14:54:00
10:54 AM,53.1,32.0,45,30.26,10.0,Calm,Calm,-,N/A,,Clear,0,2012-10-08 15:54:00
11:54 AM,54.0,32.0,43,30.25,10.0,Calm,Calm,-,N/A,,Clear,0,2012-10-08 16:54:00
12:54 PM,57.0,30.9,37,30.23,10.0,North,4.6,-,N/A,,Clear,360,2012-10-08 17:54:00
1:54 PM,57.9,34.0,41,30.19,10.0,Calm,Calm,-,N/A,,Clear,0,2012-10-08 18:54:00
2:54 PM,59.0,33.1,38,30.17,10.0,NE,3.5,-,N/A,,Clear,50,2012-10-08 19:54:00
3:54 PM,57.9,33.1,39,30.15,10.0,Variable,4.6,-,N/A,,Clear,0,2012-10-08 20:54:00
4:54 PM,59.0,32.0,36,30.14,10.0,Calm,Calm,-,N/A,,Clear,0,2012-10-08 21:54:00
5:54 PM,54.0,34.0,47,30.14,10.0,SSW,3.5,-,N/A,,Clear,210,2012-10-08 22:54:00
6:54 PM,51.1,35.1,54,30.15,10.0,Calm,Calm,-,N/A,,Clear,0,2012-10-08 23:54:00
7:54 PM,46.4,35.6,66,30.15,10.0,Calm,Calm,-,N/A,,Clear,0,2012-10-09 00:54:00
8:54 PM,44.1,37.0,76,30.15,10.0,Calm,Calm,-,N/A,,Clear,0,2012-10-09 01:54:00
9:54 PM,44.1,37.9,79,30.16,10.0,Calm,Calm,-,N/A,,Clear,0,2012-10-09 02:54:00
10:54 PM,41.0,36.0,82,30.16,10.0,Calm,Calm,-,N/A,,Clear,0,2012-10-09 03:54:00
11:54 PM,41.0,37.9,89,30.16,10.0,Calm,Calm,-,N/A,,Clear,0,2012-10-09 04:54:00